[[{"header":{"parameterUnit":"m.s-1","parameterCategory":1,"la1":30.2991,"la2":30.254,"lo1":-89.0895,"lo2":-89.0444,"dy":0.0017,"dx":0.0017,"nx":28,"ny":28,"refTime":"2023-11-08T03:00:00:Z","depth":0,"parameterNumber":2,"parameterNumberName":"U-component_of_WINDS"},"data":[0,0,0,0,0,0,0,0,0,0,0,0,0,0,0,0,0,0,0,0,0,0,0,0,0,0,0,0,0,0,0,0,0,0,0,0,0,0,0,0,0,0,0,0,0,0,0,0,0,0,0,0,0,0,0,0,0,0,-1.3893,-1.3893,0,-1.3835,-1.3834,-1.3833,-1.3791,-1.3791,-1.3791,-1.379,-1.373,-1.3728,-1.3727,0,0,0,0,0,0,0,0,0,0,0,0,0,-1.3969,-1.3968,-1.3893,-1.3893,-1.3892,-1.3835,-1.3834,-1.3833,-1.3791,-1.3791,-1.3791,-1.379,-1.373,-1.3728,-1.3727,0,0,0,0,0,0,0,0,0,0,0,0,0,-1.3926,-1.3968,-1.3893,-1.3864,-1.3861,-1.3835,-1.3834,-1.3833,-1.3791,-1.3791,-1.379,-1.379,-1.3731,-1.3729,-1.3727,-1.3725,0,0,-1.3721,-1.372,0,0,0,0,0,0,0,0,-1.3928,-1.3923,-1.3869,-1.3866,-1.3863,-1.382,-1.3838,-1.3797,-1.3792,-1.3818,-1.379,-1.379,-1.376,-1.3756,-1.3746,-1.3722,-1.3719,-1.3721,-1.3719,-1.3719,-1.3718,0,0,0,0,0,0,0,-1.3932,-1.3926,-1.387,-1.3869,-1.3864,-1.3854,-1.3847,-1.383,-1.3792,-1.3815,-1.3812,-1.3806,-1.3758,-1.3748,-1.3744,-1.3719,-1.3721,-1.3719,-1.3718,-1.3717,-1.369,-1.369,0,0,0,0,0,0,-1.3939,-1.3928,-1.3872,-1.3868,-1.3895,-1.3853,-1.3845,-1.3834,-1.3793,-1.3786,-1.3806,-1.3804,-1.3751,-1.3746,-1.3742,-1.3736,-1.3719,-1.3717,-1.3716,-1.3689,-1.369,-1.369,0,0,0,0,0,0,-1.3941,-1.3935,-1.3874,-1.3897,-1.3889,-1.3852,-1.384,-1.3833,-1.3823,-1.3786,-1.3779,-1.3803,-1.3751,-1.3744,-1.3729,-1.3733,-1.3716,-1.3714,-1.3689,-1.3689,-1.369,-1.3725,0,0,0,0,0,0,-1.3943,-1.3935,-1.3934,-1.3898,-1.3888,-1.3863,-1.384,-1.3832,-1.3819,-1.3816,-1.378,-1.3774,-1.375,-1.3732,-1.3727,-1.373,-1.3713,-1.3688,-1.3689,-1.369,-1.3723,-1.3727,-1.373,0,0,0,0,0,-1.3946,-1.3947,-1.3935,-1.3928,-1.3886,-1.3863,-1.3858,-1.383,-1.382,-1.3818,-1.3795,-1.3775,-1.3734,-1.3731,-1.3725,-1.3728,-1.3688,-1.3689,-1.369,-1.3722,-1.3726,-1.373,0,0,0,0,0,0,-1.3985,-1.3941,-1.3927,-1.3916,-1.3894,-1.3856,-1.3854,-1.3836,-1.3815,-1.3813,-1.3779,-1.3772,-1.376,-1.3742,-1.374,-1.3723,-1.3708,-1.3708,-1.3735,-1.3739,-1.3742,-1.3746,-1.3711,0,0,0,0,0,-1.3992,-1.3977,-1.394,-1.3934,-1.3923,-1.3891,-1.388,-1.3861,-1.3836,-1.3826,-1.3801,-1.3778,-1.376,-1.3748,-1.373,-1.3721,-1.3712,-1.372,-1.3723,-1.3726,-1.3726,-1.3719,-1.3722,-1.3694,-1.3694,-1.3693,0,0,-1.4007,-1.3981,-1.3974,-1.3941,-1.3921,-1.3907,-1.3883,-1.3869,-1.3857,-1.3824,-1.3808,-1.3789,-1.3761,-1.3749,-1.3742,-1.3734,-1.3732,-1.3727,-1.373,-1.3728,-1.372,-1.3723,-1.3725,-1.3694,-1.3694,-1.3694,0,0,-1.4026,-1.4005,-1.3997,-1.3978,-1.3949,-1.3927,-1.3925,-1.3891,-1.3877,-1.386,-1.3835,-1.3821,-1.379,-1.3771,-1.3757,-1.3769,-1.375,-1.3764,-1.3781,-1.3775,-1.3777,-1.3778,-1.3782,-1.3783,-1.3765,-1.3765,-1.3765,0,-1.4047,-1.4024,-1.3996,-1.3982,-1.3968,-1.3938,-1.3929,-1.3912,-1.3878,-1.3869,-1.3861,-1.3821,-1.38,-1.3783,-1.3786,-1.3776,-1.3772,-1.3768,-1.3779,-1.378,-1.3781,-1.3784,-1.3786,-1.3766,-1.3766,-1.3766,-1.3766,0,-1.4052,-1.4037,-1.4034,-1.4002,-1.3988,-1.3977,-1.3946,-1.3936,-1.3918,-1.3897,-1.388,-1.3854,-1.3829,-1.3824,-1.3806,-1.3804,-1.3799,-1.3785,-1.3769,-1.3786,-1.3788,-1.3789,-1.3769,-1.3768,-1.3768,-1.3767,0,0,-1.4093,-1.4045,-1.4044,-1.4029,-1.3995,-1.3982,-1.397,-1.3946,-1.3937,-1.3915,-1.3903,-1.3879,-1.3865,-1.385,-1.383,-1.3825,-1.3835,-1.3811,-1.381,-1.3815,-1.3829,-1.3839,-1.3841,-1.3822,-1.3822,-1.3823,-1.3831,0,-1.4106,-1.4082,-1.4056,-1.4042,-1.4027,-1.3997,-1.3987,-1.3965,-1.3945,-1.3929,-1.3908,-1.389,-1.3874,-1.3865,-1.3858,-1.3835,-1.3837,-1.3834,-1.381,-1.381,-1.3817,-1.3842,-1.3852,-1.3862,-1.3832,-1.3832,-1.3832,0,-1.4117,-1.4096,-1.4081,-1.4047,-1.404,-1.4031,-1.4006,-1.3992,-1.3966,-1.3952,-1.3935,-1.3913,-1.3899,-1.3886,-1.3865,-1.3864,-1.3853,-1.384,-1.384,-1.3835,-1.3821,-1.3837,-1.3864,-1.3865,-1.3833,-1.3833,-1.3833,0,-1.4147,-1.4115,-1.4101,-1.4089,-1.405,-1.4045,-1.4028,-1.4002,-1.3989,-1.3967,-1.3958,-1.3936,-1.3923,-1.3906,-1.3879,-1.3872,-1.3861,-1.3846,-1.3848,-1.3849,-1.3846,-1.3846,-1.387,-1.3841,-1.3841,-1.3841,-1.3841,0,-1.4164,-1.4155,-1.4114,-1.4106,-1.4095,-1.4065,-1.4055,-1.4036,-1.4012,-1.3999,-1.3973,-1.3962,-1.3927,-1.3911,-1.389,-1.3876,-1.387,-1.3858,-1.3852,-1.386,-1.3861,-1.3851,-1.3849,-1.3841,-1.3841,-1.3841,-1.3841,0,-1.4195,-1.4167,-1.415,-1.4114,-1.4105,-1.4099,-1.4068,-1.4059,-1.4038,-1.4021,-1.4016,-1.3983,-1.3963,-1.3935,-1.3906,-1.3892,-1.388,-1.3872,-1.3889,-1.3885,-1.3888,-1.3888,-1.3906,-1.3906,-1.3878,-1.3879,-1.3879,0,-1.4206,-1.4199,-1.4162,-1.4152,-1.4136,-1.4119,-1.4106,-1.4076,-1.4063,-1.4033,-1.4027,-1.4005,-1.3985,-1.3955,-1.3928,-1.3906,-1.3896,-1.3904,-1.3892,-1.39,-1.3895,-1.3895,-1.3893,-1.3906,-1.3907,-1.3907,-1.3907,0,-1.4229,-1.4216,-1.4198,-1.4174,-1.4159,-1.4139,-1.4119,-1.4111,-1.4077,-1.4064,-1.4043,-1.4028,-1.3999,-1.3977,-1.3951,-1.3934,-1.3915,-1.3911,-1.391,-1.3917,-1.3927,-1.392,-1.3895,-1.3911,-1.391,-1.391,-1.391,-1.391,-1.425,-1.4242,-1.4215,-1.4195,-1.4176,-1.4157,-1.4146,-1.4124,-1.4106,-1.408,-1.4064,-1.4043,-1.4017,-1.3981,-1.3964,-1.3948,-1.394,-1.3939,-1.3938,-1.3938,-1.394,-1.3931,-1.3943,-1.3943,-1.3943,-1.3943,-1.3943,0,-1.4271,-1.4252,-1.4234,-1.4206,-1.419,-1.4174,-1.415,-1.4138,-1.412,-1.4098,-1.4079,-1.4055,-1.4034,-1.4006,-1.3982,-1.3974,-1.3965,-1.3969,-1.3969,-1.3965,-1.3949,-1.3952,-1.3977,-1.3977,-1.3977,-1.3977,-1.3977,-1.3977,-1.428,-1.4264,-1.4248,-1.4223,-1.4204,-1.4184,-1.4172,-1.4154,-1.4136,-1.411,-1.4092,-1.4074,-1.4049,-1.4024,-1.4003,-1.3995,-1.3987,-1.3994,-1.3984,-1.3969,-1.3966,-1.3963,-1.3965,-1.3993,-1.3993,-1.4,-1.4001,-1.4001]},{"header":{"parameterUnit":"m.s-1","parameterCategory":1,"la1":30.2991,"la2":30.254,"lo1":-89.0895,"lo2":-89.0444,"dy":0.0017,"dx":0.0017,"nx":28,"ny":28,"refTime":"2023-11-08T03:00:00:Z","depth":0,"parameterNumber":3,"parameterNumberName":"V-component_of_WINDS"},"data":[0,0,0,0,0,0,0,0,0,0,0,0,0,0,0,0,0,0,0,0,0,0,0,0,0,0,0,0,0,0,0,0,0,0,0,0,0,0,0,0,0,0,0,0,0,0,0,0,0,0,0,0,0,0,0,0,0,0,2.7206,2.7205,0,2.7144,2.7144,2.7143,2.7069,2.7067,2.7066,2.7065,2.7,2.6999,2.6999,0,0,0,0,0,0,0,0,0,0,0,0,0,2.7259,2.7258,2.7206,2.7205,2.7205,2.7144,2.7144,2.7143,2.7069,2.7067,2.7066,2.7065,2.7,2.6999,2.6999,0,0,0,0,0,0,0,0,0,0,0,0,0,2.7221,2.7258,2.7206,2.716,2.7156,2.7145,2.7144,2.7142,2.7069,2.7067,2.7066,2.7064,2.7,2.6999,2.6998,2.7027,0,0,2.6995,2.6995,0,0,0,0,0,0,0,0,2.7223,2.7219,2.7168,2.7164,2.7158,2.7112,2.7138,2.7104,2.7069,2.7102,2.7065,2.7063,2.7039,2.7034,2.7026,2.7024,2.7021,2.6995,2.6995,2.6994,2.6994,0,0,0,0,0,0,0,2.7226,2.7221,2.7181,2.7167,2.7161,2.7143,2.7135,2.7131,2.7081,2.7099,2.7093,2.7087,2.7036,2.7028,2.7024,2.702,2.6995,2.6994,2.6994,2.6993,2.7038,2.704,0,0,0,0,0,0,2.7235,2.7224,2.7183,2.718,2.7187,2.7143,2.7135,2.7129,2.708,2.7071,2.7089,2.7084,2.703,2.7026,2.7022,2.7052,2.6994,2.6993,2.6993,2.7036,2.7039,2.7041,0,0,0,0,0,0,2.7237,2.7232,2.7186,2.72,2.7193,2.7144,2.7138,2.7129,2.712,2.7073,2.7063,2.709,2.7029,2.7023,2.7026,2.7049,2.6993,2.6992,2.7034,2.7037,2.704,2.7114,0,0,0,0,0,0,2.7239,2.7233,2.7244,2.7201,2.7192,2.7192,2.7139,2.7129,2.7119,2.7112,2.7071,2.7063,2.7027,2.7028,2.7026,2.7047,2.6991,2.7032,2.7036,2.7039,2.7109,2.7119,2.7127,0,0,0,0,0,2.7241,2.7266,2.7245,2.724,2.7204,2.7194,2.7189,2.7147,2.7121,2.7131,2.7101,2.7064,2.7047,2.7029,2.7025,2.7047,2.703,2.7035,2.7038,2.7105,2.7117,2.7127,0,0,0,0,0,0,2.7312,2.726,2.7235,2.7248,2.7226,2.7181,2.7192,2.7161,2.7145,2.7139,2.7088,2.7079,2.7089,2.7068,2.7049,2.7072,2.7034,2.7037,2.7085,2.7096,2.7105,2.711,2.699,0,0,0,0,0,2.733,2.7326,2.728,2.7295,2.7286,2.7241,2.7235,2.7205,2.718,2.717,2.714,2.7116,2.7106,2.71,2.7087,2.7106,2.7096,2.7118,2.7127,2.7135,2.7139,2.7148,2.7157,2.7054,2.7054,2.7054,0,0,2.7365,2.7336,2.7336,2.7309,2.7289,2.7286,2.7234,2.7232,2.723,2.7169,2.7171,2.7148,2.7119,2.713,2.7134,2.7113,2.7165,2.714,2.7147,2.7146,2.7153,2.7163,2.7172,2.7057,2.7056,2.7056,0,0,2.7428,2.7406,2.7417,2.7398,2.7368,2.7338,2.7341,2.7301,2.7284,2.7285,2.724,2.7236,2.7219,2.72,2.7188,2.7246,2.7212,2.7243,2.729,2.7299,2.7308,2.7315,2.7336,2.7344,2.7247,2.7247,2.7247,0,2.7476,2.747,2.7426,2.7428,2.7418,2.7365,2.7376,2.7359,2.7326,2.732,2.7298,2.7276,2.7252,2.7259,2.7273,2.7265,2.7267,2.7248,2.731,2.7317,2.7323,2.7342,2.735,2.7251,2.7251,2.7251,2.725,0,2.7531,2.7527,2.754,2.7511,2.7502,2.7508,2.7465,2.7461,2.7433,2.7406,2.7408,2.7378,2.7359,2.7358,2.733,2.7361,2.735,2.732,2.728,2.7337,2.7355,2.7362,2.7257,2.7256,2.7255,2.7254,0,0,2.7636,2.7584,2.759,2.7576,2.754,2.7536,2.7541,2.7523,2.7521,2.75,2.7503,2.749,2.7463,2.7449,2.7418,2.7427,2.7476,2.7395,2.7394,2.7412,2.751,2.7533,2.7542,2.7453,2.7454,2.7455,2.7512,0,2.7693,2.7698,2.766,2.7675,2.7672,2.7622,2.7625,2.7604,2.7579,2.7572,2.7544,2.7536,2.75,2.7492,2.7498,2.7469,2.7495,2.7464,2.7455,2.7455,2.7464,2.7551,2.7576,2.7631,2.7519,2.752,2.7521,0,2.776,2.7745,2.776,2.7724,2.7721,2.7726,2.7707,2.7701,2.7676,2.7657,2.7643,2.7608,2.761,2.7573,2.7574,2.7555,2.7549,2.7534,2.7535,2.7532,2.7492,2.7552,2.7647,2.7656,2.7531,2.753,2.753,0,2.7837,2.782,2.7827,2.7817,2.7775,2.7779,2.7762,2.7735,2.7727,2.7711,2.7705,2.7689,2.768,2.7669,2.763,2.7607,2.7637,2.7596,2.7622,2.7623,2.763,2.763,2.7727,2.7626,2.7626,2.7626,2.7626,0,2.7904,2.7916,2.7861,2.7865,2.7877,2.7833,2.7845,2.7823,2.7799,2.7799,2.7754,2.7754,2.7704,2.7698,2.7668,2.7675,2.7671,2.7656,2.7648,2.766,2.7662,2.7656,2.7651,2.7628,2.7628,2.7627,2.7627,0,2.7991,2.7955,2.796,2.792,2.7911,2.7921,2.7887,2.789,2.7863,2.7862,2.786,2.7817,2.7808,2.7769,2.7751,2.7731,2.7748,2.7732,2.7757,2.7752,2.778,2.7778,2.7875,2.7886,2.7779,2.778,2.7781,0,2.8037,2.8045,2.8007,2.8004,2.7989,2.7984,2.7976,2.7933,2.7927,2.79,2.7906,2.7894,2.7882,2.7871,2.7838,2.7824,2.7807,2.7842,2.7805,2.7817,2.7808,2.7809,2.781,2.7851,2.7852,2.7853,2.7854,0,2.8123,2.8105,2.8096,2.8081,2.8074,2.806,2.8043,2.8043,2.7995,2.799,2.7981,2.7973,2.7955,2.7944,2.7925,2.7906,2.7873,2.7866,2.7871,2.7884,2.7899,2.7892,2.7779,2.7864,2.7863,2.7862,2.7862,2.7861,2.8191,2.8196,2.8171,2.8162,2.8146,2.8131,2.8132,2.8106,2.8098,2.8081,2.8056,2.8051,2.8026,2.7997,2.7981,2.7977,2.7957,2.7965,2.7967,2.7969,2.7976,2.79,2.7973,2.7973,2.7972,2.7972,2.7972,0,2.8275,2.8256,2.8249,2.8228,2.8222,2.8191,2.8171,2.8168,2.8165,2.8144,2.8134,2.8125,2.8114,2.8081,2.8067,2.807,2.8054,2.8068,2.8067,2.8064,2.7994,2.7991,2.8081,2.8081,2.8081,2.8081,2.8081,2.8081,2.8317,2.8325,2.8304,2.8303,2.8284,2.828,2.8271,2.8258,2.8242,2.8234,2.8225,2.8204,2.8178,2.8163,2.8152,2.8142,2.8139,2.8158,2.8144,2.8079,2.8069,2.8059,2.8056,2.8158,2.8158,2.8214,2.8215,2.8215]}]]